Погода в Благовещенске

Погода в Благовещенске : погода сейчас, прогноз погоды и архив. Всё, что Вы хотите узнать о погоде в Благовещенске!

Хотите узнать прогноз погоды в Благовещенске? Тогда Вам сюда: Погода в Благовещенске

Поиск расширенной информации на нашем сайте:

Другие новости

Новости СМИ2

Главная страница сайта

Новости сайта

02.10.2013

Напоминаем, что на нашем новом сайте вы можете получить высокодетализированные прогнозы погоды по пунктам России, СНГ и мира (включающие важные для авиации метеовеличины, такие как направление и скорость ветра, видимость, явления погоды, количество и форма облачности, нижняя и верхняя граница облачности), а также ознакомиться с разнообразными материалами по авиационной метеорологии и подборкой полезных ссылок на эту тему.

Сайт Метеоцентр.Азия посвящён разработке технологий оптимизации авиаметеорологического обслуживания, включая проектирование и перспективное создание нескольких автоматизированных авиаметеорологических систем:
- система выпуска высокодетальных прогностических карт явлений погоды для нижнего воздушного пространства по России и ближнему зарубежью;
- система верификации прогнозов TAF (выпускаемых синоптиками официальных АМСГ РФ и ближнего зарубежья) и AUTOTAF (выпускаемых сайтом Метеоцентр.Азия) - выявление ошибок, онлайн-сопоставление с фактической погодой METAR, автоматическое внесение коррективов в прогнозы при резком отклонении фактической погоды от прогноза, подсчёт оправдываемости прогнозов по элементам и в целом;
- система обработки, анализа и отображения авиаметеорологической информации для применения провайдерами метеорологической информации.

Рекомендуем: новости гостиничного бизнеса http://biznes-center.com

Погода в Благовещенске - сегодня

Время (UTC), дата Ветер
(°,м/с) 
Видим.   Явления Облачность Т
(°С)
Тd
(°С)
f(%) Тe
(°С)
Pmin
(гПа)
dP
(гПа)
Po
(мм)
O2
(г/м3)
Тmin Tmax R s Состояние
почвы
09 22.03.17 340 (С) 3{11}  20000 м    8/4 1000 м верхняя 
[Cu med, cong|Ci fib]
+1.7 -12.3 35 1017.6  1.2  747  300           
12 22.03.17 310 (СЗ) 3{11}  н/о    6/6 1000 м 
[Sc]
-0.9 -8.4 57 -3  1019.7  1.8  749  304    +4.7       
15 22.03.17 310 (СЗ) н/о    10/10 1000 м 
[Sc]
-1.9 -7 68 -4  1020.5  0.7  749  305           
18 22.03.17 310 (СЗ) н/о    3/3 1000 м 
[Sc]
-4.1 -7.6 77 -6  1021.4  0.7  750  308           
21 22.03.17 300 (СЗ) 10 км    8/8 1000 м 
[Sc]
-4.5 -8.5 74 -7  1022.2  0.7  750  308           
00 23.03.17 330 (СЗ) 20000 м    4/0 средняя, верхняя 
[Ac lent|Ci fib]
-1.3 -8.1 60 -5  1022.7  0.8  751  305  -4.9        замёрзшая 
03 23.03.17 020 (С) 20000 м    5/5 1000 м 
[Cu hum]
+2.4 -12 34 1022.9  0.5  751  301           
06 23.03.17 010 (С) 4{11}  20000 м    6/6 1000 м 
[Cu hum]
+4.1 -13 27 +2  1021.6  -1.2  750  299           
09 23.03.17 310 (СЗ) 20000 м    8/8 1000 м 
[Cu hum]
+3.6 -11.8 31 +2  1021.3  -0.3  750  299           
12 23.03.17 300 (СЗ) н/о    ясно 
-0.9 -10.5 48 -3  1022.5  0.8  751  305    +4.9       
15 23.03.17 300 (СЗ) н/о    ясно 
-2.6 -10.8 53 -5  1023  0.4  751  307           
18 23.03.17 300 (СЗ) н/о    ясно 
-3.7 -10.9 57 -7  1022.5  -0.6  751  308           
21 23.03.17 290 (З) 20000 м    ясно 
-4.5 -11.2 59 -8  1022.3  -0.3  750  309           
00 24.03.17 300 (СЗ) 20000 м    8/0 средняя, верхняя 
[Ac As|Cc]
-0.5 -10.2 48 -3  1022.4  0.4  751  304  -4.7        замёрзшая 
03 24.03.17 340 (С) 20000 м    4/3 1000 м верхняя 
[Cu hum|Cc]
+4.9 -10.8 31 +5  1020.9  -1  750  298           
06 24.03.17 300 (СЗ) 20000 м    8/8 1000 м 
[Sc diur, vesp]
+5.7 -11.1 29 +5  1019.1  -1.7  749  297           
09 24.03.17 330 (СЗ) 20000 м    8/8 1000 м 
[Sc diur, vesp]
+5.2 -11 30 +4  1019  -0.2  749  297           
12 24.03.17 300 (СЗ) н/о    4/0 верхняя 
[Ci fib]
-1.6 -9.2 56 -3  1020.3  0.8  749  305    +6.2       
15 24.03.17 300 (СЗ) н/о    10/0 верхняя 
[Ci fib]
-2.6 -9.6 59 -5  1020.4  749  306           
18 24.03.17 300 (СЗ) н/о    8/0 верхняя 
[Ci fib]
-3.5 -10.1 60 -6  1019.8  -0.7  749  307           
21 24.03.17 290 (З) 20000 м    10/0 средняя, верхняя 
[Ac lent|Ci fib]
-4.2 -10.6 61 -6  1019.7  -0.1  749  307           
00 25.03.17 300 (СЗ) 20000 м    10/0 средняя, верхняя 
[Ac trans|Ci fib]
+0.3 -10.3 45 -2  1019.4  0.1  749  302  -4.6        замёрзшая 
03 25.03.17 340 (С) 20000 м    8/3 1000 м верхняя 
[Cu hum|Ci fib]
+5.3 -10.9 30 +5  1019.1  749  297           
06 25.03.17 300 (СЗ) 20000 м    10/10 1000 м 
[Sc]
+4.9 -11.7 29 +4  1018.2  -0.9  748  297           
09 25.03.17 340 (С) 20000 м    8/4 1000 м средняя 
[Sc diur, vesp|Ac trans]
+4 -10.9 33 +5  1018.2  748  298           
Время (UTC), дата Ветер
(°,м/с) 
Видим.   Явления Облачность Т
(°С)
Тd
(°С)
f(%) Тe
(°С)
Pmin
(гПа)
dP
(гПа)
Po
(мм)
O2
(г/м3)
Тmin Tmax R s Состояние
почвы

Для получения пояснительной информации подведите курсор к названию столбца.

ПОГОДА в Благовещенске - архив

Всё, что Вы хотите узнать о погоде в Благовещенске - удобно и подробно!

Выберите нужную дату (начиная с 1 января 2015* года) и нажмите кнопку "Найти".
Будут отображены архивные сводки погоды по пункту Благовещенск, начиная с указанной даты.


Отображать данные в формате CSV (для использования в таблицах Excel)


Внимание! Наш архив погоды предназначен исключительно для личного некоммерческого использования в познавательных целях. Если Вам необходимы официальные справки о состоянии погоды (для производственных, юридических, коммерческих и т.п. целей), обращайтесь в органы Росгидромета.

*Примечание: данная дата относится к архиву по метеостанциям СССР (Россия, СНГ, Балтия).
Архив по метеостанциям Зарубежной Европы и Азии (кроме Китая) хранится 10 дней, по другим регионам земного шара (Китай, Африка, Америка, Австралия, Океания) - 1 день.

Благовещенск - район местоположения метеостанции


Название, широта, долгота, высота метеостанции:
Благовещенск 50.2°ш. 127.6°д. 132 м над ур. моря [Российская Федерация]

Дополнительная информация

В oтличие oт бoльшинства пoгoдных сайтoв мы публикуем пoдрoбную метеoинфoрмацию в детальнoм прoфессиoнальнoм фoрмате.

Характеристики температуры и влажнoсти вoздуха измеряются на высoте 2 м в тени вдали oт зданий и деревьев.
Скoрoсть ветра измеряется на высoте 10 м (на урoвне рoста челoвека скoрoсть ветра ниже в 1.5-2 раза). Если метеoстанция нахoдится в гoрoде или в лесу, тo скoрoсть ветра занижена на 2-4 м/с пo сравнению с oткрытым местoм. Скoрoсть ветра над акватoриями крупных рек и oзёр, а также на вершинах хoлмoв на 2-5 м/с выше, чем в oбычных услoвиях.
Атмoсфернoе давление в разных тoчках местнoсти мoжет значительнo oтличаться oт давления на метеoстанции, в зависимoсти oт услoвий рельефа (при пoдъёме на 10 м давление пoнижается примернo на 1 мм рт.ст.).